[[{"header":{"parameterUnit":"m.s-1","parameterCategory":2,"la1":30.2991,"la2":30.254,"lo1":-89.0895,"lo2":-89.0444,"dy":0.0017,"dx":0.0017,"nx":28,"ny":28,"refTime":"2024-10-11T03:00:00:Z","depth":"0","parameterNumber":2,"parameterNumberName":"U-component_of_CURRENTS"},"data":[0,0,0,0,0,0,0,0,0,0,0,0,0,0,0,0,0,0,0,0,0,0,0,0,0,0,0,0,0,0,0,0,0,0,0,0,0,0,0,0,0,0,0,0,0,0,0,0,0,0,0,0,0,0,0,0,0,0,0.2753,0.2754,0,0.2789,0.2789,0.2789,0.2802,0.2802,0.2803,0.2803,0.2617,0.2612,0.2607,0,0,0,0,0,0,0,0,0,0,0,0,0,0.2672,0.2673,0.2753,0.2754,0.2755,0.2789,0.2789,0.2789,0.2802,0.2802,0.2803,0.2803,0.2619,0.2613,0.2607,0,0,0,0,0,0,0,0,0,0,0,0,0,0.2702,0.2673,0.2752,0.2769,0.2772,0.2789,0.2789,0.2789,0.2802,0.2802,0.2803,0.2803,0.2621,0.2614,0.2606,0.2545,0,0,0.2581,0.2578,0,0,0,0,0,0,0,0,0.27,0.2704,0.2766,0.2768,0.2771,0.2797,0.2693,0.2698,0.2801,0.2784,0.2803,0.2804,0.266,0.2649,0.265,0.2536,0.2528,0.2581,0.2576,0.2572,0.257,0,0,0,0,0,0,0,0.2698,0.2703,0.2761,0.2767,0.277,0.2768,0.2772,0.2695,0.271,0.2786,0.2788,0.2801,0.2659,0.2657,0.2645,0.2526,0.2581,0.2574,0.2569,0.2566,0.2401,0.2401,0,0,0,0,0,0,0.2706,0.2701,0.276,0.2763,0.2743,0.277,0.2774,0.2783,0.2715,0.2709,0.2801,0.2802,0.2671,0.2654,0.2638,0.2595,0.2573,0.2565,0.256,0.2401,0.2401,0.2402,0,0,0,0,0,0,0.2704,0.2711,0.2759,0.2737,0.2744,0.2771,0.278,0.2784,0.2786,0.2731,0.2719,0.2801,0.267,0.2649,0.2596,0.2586,0.2561,0.2554,0.24,0.2401,0.2401,0.2487,0,0,0,0,0,0,0.2701,0.2709,0.2706,0.2738,0.2746,0.2767,0.2781,0.2784,0.2796,0.2797,0.2726,0.271,0.2669,0.2608,0.2588,0.2575,0.2548,0.24,0.2401,0.2401,0.2484,0.249,0.2496,0,0,0,0,0,0.2698,0.2691,0.2706,0.2713,0.2745,0.2767,0.277,0.2787,0.2795,0.2791,0.2765,0.2712,0.2598,0.2602,0.2578,0.2563,0.2399,0.24,0.2401,0.2481,0.2489,0.2496,0,0,0,0,0,0,0.2638,0.2693,0.271,0.2715,0.2742,0.2772,0.2767,0.2786,0.2765,0.2759,0.2711,0.2693,0.2648,0.2592,0.2598,0.2521,0.249,0.2487,0.2559,0.2566,0.2572,0.2557,0.2541,0,0,0,0,0,0.263,0.2645,0.2693,0.2693,0.2707,0.2737,0.2745,0.2763,0.2761,0.2754,0.2716,0.2669,0.2631,0.2591,0.2544,0.2484,0.2455,0.2461,0.2467,0.2473,0.2446,0.2431,0.2433,0.2405,0.2405,0.2404,0,0,0.2606,0.2638,0.2644,0.2682,0.27,0.2716,0.2741,0.2755,0.2763,0.2728,0.2705,0.2684,0.2624,0.2586,0.2557,0.2534,0.2473,0.2474,0.248,0.2448,0.2432,0.2435,0.2437,0.2405,0.2405,0.2405,0,0,0.2575,0.2594,0.2605,0.2629,0.267,0.269,0.2697,0.2731,0.2737,0.2724,0.2717,0.27,0.2618,0.2598,0.2571,0.2571,0.2517,0.2551,0.2551,0.2539,0.2541,0.2542,0.2543,0.2544,0.2543,0.2543,0.2543,0,0.2543,0.2565,0.2606,0.2625,0.2638,0.268,0.2688,0.2701,0.2713,0.2705,0.2718,0.2657,0.2625,0.2582,0.2605,0.2583,0.257,0.2533,0.2548,0.2548,0.2548,0.2548,0.2548,0.2548,0.2547,0.2547,0.2546,0,0.2534,0.2547,0.2549,0.2591,0.2608,0.2617,0.2657,0.2663,0.2679,0.2689,0.2667,0.2656,0.2613,0.2619,0.2611,0.2592,0.2584,0.2573,0.2533,0.2557,0.2555,0.2553,0.2554,0.2552,0.2551,0.255,0,0,0.2464,0.2533,0.2529,0.2545,0.2591,0.2603,0.2613,0.2627,0.262,0.2637,0.2616,0.2612,0.2614,0.2585,0.2585,0.2584,0.2613,0.258,0.2578,0.2587,0.2594,0.2488,0.2476,0.2608,0.2607,0.2607,0.2607,0,0.2438,0.247,0.2506,0.2511,0.2529,0.2564,0.2567,0.2583,0.2594,0.2581,0.2585,0.2562,0.2597,0.2587,0.2597,0.2594,0.2605,0.2614,0.2561,0.2559,0.2467,0.2468,0.2278,0.2251,0.2604,0.2604,0.2604,0,0.2408,0.2439,0.2455,0.2483,0.249,0.2493,0.2498,0.2507,0.2506,0.251,0.2502,0.2505,0.2503,0.2537,0.2546,0.255,0.2575,0.2588,0.2588,0.2444,0.2446,0.2275,0.2233,0.2064,0.26,0.26,0.26,0,0.235,0.2386,0.2397,0.2411,0.2458,0.2453,0.2461,0.2473,0.2464,0.2457,0.244,0.2446,0.2429,0.2464,0.2501,0.2524,0.2507,0.2538,0.247,0.2465,0.2262,0.2237,0.2042,0.2547,0.2547,0.2547,0.2547,0,0.2308,0.2304,0.2369,0.2377,0.2365,0.2407,0.238,0.2395,0.2386,0.2352,0.239,0.2361,0.241,0.241,0.2468,0.244,0.2479,0.245,0.2442,0.2289,0.2268,0.2078,0.205,0.2547,0.2547,0.2547,0.2547,0,0.2232,0.2283,0.2289,0.2334,0.2343,0.2327,0.233,0.231,0.2315,0.2271,0.2263,0.2276,0.2274,0.2321,0.2358,0.2364,0.2265,0.2367,0.2186,0.2155,0.1918,0.1903,0.1733,0.1712,0.228,0.2277,0.2275,0,0.2186,0.2196,0.2245,0.2249,0.2263,0.2255,0.225,0.2266,0.2245,0.2216,0.2183,0.2167,0.2151,0.2149,0.2145,0.2176,0.2143,0.201,0.2011,0.1842,0.1823,0.1837,0.1837,0.1805,0.1799,0.1794,0.179,0,0.2098,0.2126,0.2148,0.2172,0.2171,0.216,0.215,0.2129,0.2132,0.2093,0.204,0.2023,0.199,0.1901,0.1906,0.1907,0.1823,0.1907,0.1762,0.1437,0.1406,0.1402,0.1896,0.1746,0.175,0.1754,0.1756,0.1758,0.2015,0.2016,0.2068,0.2077,0.208,0.2061,0.2019,0.2008,0.1959,0.1864,0.19,0.1799,0.167,0.1639,0.162,0.1352,0.1549,0.1258,0.1264,0.1303,0.1221,0.1618,0.1437,0.1439,0.1442,0.1443,0.1445,0,0.1913,0.1954,0.1968,0.1985,0.1958,0.1985,0.1948,0.1879,0.1797,0.1713,0.1643,0.1423,0.1241,0.1121,0.0838,0.0702,0.0757,0.0627,0.0574,0.0625,0.0956,0.0865,0.0511,0.0511,0.0511,0.0511,0.0511,0.0512,0.1868,0.187,0.1902,0.1866,0.1866,0.178,0.1741,0.1644,0.1562,0.1342,0.1177,0.1118,0.083,0.0379,0.0062,0.007,0.0075,0.0026,0.0157,0.0304,0.0363,0.0419,0.0322,-0.0141,-0.0142,-0.0233,-0.0235,-0.0236]},{"header":{"parameterUnit":"m.s-1","parameterCategory":2,"la1":30.2991,"la2":30.254,"lo1":-89.0895,"lo2":-89.0444,"dy":0.0017,"dx":0.0017,"nx":28,"ny":28,"refTime":"2024-10-11T03:00:00:Z","depth":"0","parameterNumber":3,"parameterNumberName":"V-component_of_CURRENTS"},"data":[0,0,0,0,0,0,0,0,0,0,0,0,0,0,0,0,0,0,0,0,0,0,0,0,0,0,0,0,0,0,0,0,0,0,0,0,0,0,0,0,0,0,0,0,0,0,0,0,0,0,0,0,0,0,0,0,0,0,-0.0732,-0.0732,0,-0.0727,-0.0727,-0.0727,-0.0722,-0.0723,-0.0723,-0.0723,-0.0637,-0.0635,-0.0632,0,0,0,0,0,0,0,0,0,0,0,0,0,-0.0681,-0.0682,-0.0732,-0.0732,-0.0732,-0.0727,-0.0727,-0.0727,-0.0722,-0.0723,-0.0723,-0.0723,-0.0638,-0.0635,-0.0632,0,0,0,0,0,0,0,0,0,0,0,0,0,-0.069,-0.0682,-0.0732,-0.0731,-0.0732,-0.0728,-0.0727,-0.0727,-0.0722,-0.0723,-0.0723,-0.0723,-0.0639,-0.0635,-0.0632,-0.0604,0,0,-0.062,-0.0619,0,0,0,0,0,0,0,0,-0.069,-0.0692,-0.0731,-0.0732,-0.0732,-0.0728,-0.0678,-0.0682,-0.0722,-0.0723,-0.0723,-0.0723,-0.0661,-0.0656,-0.0652,-0.06,-0.0596,-0.062,-0.0618,-0.0616,-0.0615,0,0,0,0,0,0,0,-0.0689,-0.0692,-0.0728,-0.0732,-0.0732,-0.0712,-0.0714,-0.0679,-0.0687,-0.0723,-0.0723,-0.0727,-0.066,-0.0656,-0.065,-0.0595,-0.062,-0.0617,-0.0615,-0.0613,-0.0482,-0.0481,0,0,0,0,0,0,-0.0698,-0.0692,-0.0728,-0.0728,-0.0714,-0.0714,-0.0715,-0.0727,-0.0689,-0.0686,-0.0727,-0.0727,-0.0662,-0.0654,-0.0646,-0.0599,-0.0616,-0.0613,-0.0611,-0.0484,-0.0482,-0.0481,0,0,0,0,0,0,-0.0697,-0.0701,-0.0728,-0.0711,-0.0713,-0.0715,-0.0727,-0.0727,-0.0723,-0.0694,-0.0688,-0.0725,-0.0662,-0.0652,-0.0614,-0.0596,-0.0611,-0.0608,-0.0485,-0.0483,-0.0481,-0.0511,0,0,0,0,0,0,-0.0695,-0.0701,-0.0707,-0.0712,-0.0715,-0.0725,-0.0727,-0.0726,-0.0726,-0.0726,-0.0689,-0.0682,-0.0661,-0.062,-0.061,-0.0591,-0.0605,-0.0487,-0.0484,-0.0482,-0.0512,-0.0511,-0.051,0,0,0,0,0,-0.0694,-0.0699,-0.0708,-0.0712,-0.0725,-0.0725,-0.0724,-0.0723,-0.0726,-0.0722,-0.0698,-0.0683,-0.0597,-0.0616,-0.0605,-0.0585,-0.0488,-0.0485,-0.0482,-0.0512,-0.0511,-0.051,0,0,0,0,0,0,-0.0675,-0.0699,-0.0709,-0.0721,-0.0724,-0.0725,-0.0721,-0.0724,-0.0703,-0.07,-0.0673,-0.0663,-0.0621,-0.0595,-0.0616,-0.0537,-0.0537,-0.0532,-0.0563,-0.0562,-0.0561,-0.0565,-0.0602,0,0,0,0,0,-0.0677,-0.0689,-0.0705,-0.0712,-0.0716,-0.0719,-0.0718,-0.0721,-0.0708,-0.07,-0.0676,-0.0639,-0.06,-0.0577,-0.054,-0.05,-0.0454,-0.0476,-0.0475,-0.0474,-0.0468,-0.0384,-0.0375,-0.0471,-0.0471,-0.0471,0,0,-0.0669,-0.0685,-0.0691,-0.0709,-0.0711,-0.0715,-0.0718,-0.0719,-0.0714,-0.0691,-0.0668,-0.0636,-0.0588,-0.0546,-0.0523,-0.0523,-0.0421,-0.047,-0.0471,-0.0465,-0.038,-0.0371,-0.0362,-0.0469,-0.047,-0.047,0,0,-0.0662,-0.0678,-0.0688,-0.0694,-0.0705,-0.0706,-0.0709,-0.0711,-0.0704,-0.0682,-0.0659,-0.0618,-0.0566,-0.0527,-0.05,-0.0465,-0.042,-0.0451,-0.0447,-0.0366,-0.0358,-0.035,-0.0281,-0.0266,-0.0449,-0.0449,-0.0449,0,-0.065,-0.0676,-0.0686,-0.0696,-0.0702,-0.0705,-0.0711,-0.0701,-0.0688,-0.0674,-0.0675,-0.0586,-0.0553,-0.0489,-0.0482,-0.0463,-0.0413,-0.0464,-0.0366,-0.0357,-0.0349,-0.0279,-0.0263,-0.045,-0.045,-0.045,-0.045,0,-0.0659,-0.0675,-0.0677,-0.0697,-0.0697,-0.0702,-0.07,-0.0689,-0.0683,-0.0669,-0.0614,-0.0568,-0.0514,-0.0494,-0.048,-0.0402,-0.0385,-0.0379,-0.0376,-0.0341,-0.027,-0.0252,-0.0451,-0.0451,-0.0451,-0.045,0,0,-0.0637,-0.0679,-0.0678,-0.0692,-0.0703,-0.0702,-0.069,-0.0677,-0.066,-0.0631,-0.0593,-0.053,-0.0508,-0.0474,-0.0442,-0.0377,-0.0282,-0.0357,-0.0353,-0.03,-0.0102,-0.0121,-0.0103,-0.0258,-0.0255,-0.0253,-0.0078,0,-0.064,-0.0672,-0.0685,-0.0694,-0.071,-0.0706,-0.0692,-0.0673,-0.065,-0.061,-0.0553,-0.0502,-0.0498,-0.0468,-0.0403,-0.0309,-0.0236,-0.033,-0.0134,-0.0128,-0.0158,-0.0084,-0.0067,0.0088,-0.0061,-0.0058,-0.0056,0,-0.0645,-0.0669,-0.0695,-0.0708,-0.0711,-0.0708,-0.0686,-0.0673,-0.0617,-0.0595,-0.0539,-0.0496,-0.0402,-0.0402,-0.0223,-0.0282,-0.0194,-0.0123,-0.0114,-0.0108,-0.0114,0.0032,0.0125,0.0156,-0.0029,-0.0031,-0.0033,0,-0.0638,-0.0668,-0.0693,-0.07,-0.0713,-0.0708,-0.0702,-0.0665,-0.0638,-0.0578,-0.0538,-0.0444,-0.037,-0.0257,-0.0135,-0.0163,0.007,0.0052,0.0123,0.0123,0.0188,0.0188,0.0327,0.0196,0.0195,0.0195,0.0194,0,-0.0641,-0.0649,-0.0693,-0.0703,-0.0704,-0.0711,-0.0687,-0.0669,-0.0619,-0.0563,-0.0526,-0.0448,-0.0326,-0.0195,-0.01,0.0068,0.0105,0.0147,0.0177,0.0177,0.0174,0.0242,0.0241,0.0201,0.02,0.0199,0.0198,0,-0.0615,-0.0654,-0.0673,-0.07,-0.0704,-0.0698,-0.0679,-0.065,-0.0618,-0.0537,-0.0512,-0.0408,-0.0246,-0.0127,0.0079,0.0127,0.0313,0.0325,0.0302,0.0325,0.0376,0.0372,0.0574,0.06,0.0433,0.0434,0.0435,0,-0.0597,-0.0618,-0.0662,-0.0666,-0.0675,-0.0672,-0.0659,-0.0644,-0.0607,-0.05,-0.0447,-0.0297,-0.0173,0.0085,0.0212,0.0383,0.0399,0.0466,0.0405,0.0403,0.0423,0.043,0.0437,0.0494,0.0495,0.0496,0.0497,0,-0.0549,-0.0579,-0.0598,-0.0624,-0.0624,-0.0618,-0.06,-0.0574,-0.053,-0.0455,-0.0325,-0.0223,-0.0005,0.0189,0.0363,0.0445,0.048,0.0485,0.0521,0.0515,0.0503,0.0533,0.0338,0.0504,0.0503,0.0503,0.0502,0.0502,-0.0491,-0.0503,-0.0545,-0.056,-0.0564,-0.0549,-0.0522,-0.0484,-0.041,-0.0281,-0.0224,-0.0051,0.0149,0.04,0.0478,0.0593,0.0581,0.0613,0.0623,0.0641,0.0623,0.042,0.058,0.058,0.0579,0.0579,0.0579,0,-0.0412,-0.0451,-0.047,-0.0489,-0.0478,-0.05,-0.0465,-0.0422,-0.0317,-0.0201,-0.0078,0.0159,0.0377,0.0522,0.0699,0.0741,0.0746,0.0744,0.0775,0.0784,0.0659,0.0612,0.074,0.074,0.074,0.074,0.074,0.074,-0.0369,-0.0385,-0.0421,-0.0402,-0.041,-0.0377,-0.0352,-0.0284,-0.0208,-0.0027,0.0116,0.0214,0.0374,0.0695,0.0844,0.085,0.0897,0.0898,0.0911,0.0815,0.0804,0.0793,0.075,0.0905,0.0905,0.1045,0.1046,0.1047]}],[{"header":{"parameterUnit":"m.s-1","parameterCategory":2,"la1":30.2991,"la2":30.254,"lo1":-89.0895,"lo2":-89.0444,"dy":0.0017,"dx":0.0017,"nx":28,"ny":28,"refTime":"2024-10-11T03:00:00:Z","depth":"2","parameterNumber":2,"parameterNumberName":"U-component_of_CURRENTS"},"data":[0,0,0,0,0,0,0,0,0,0,0,0,0,0,0,0,0,0,0,0,0,0,0,0,0,0,0,0,0,0,0,0,0,0,0,0,0,0,0,0,0,0,0,0,0,0,0,0,0,0,0,0,0,0,0,0,0,0,0.0997,0.0997,0,0.094,0.0939,0.0938,0.0961,0.0962,0.0964,0.0965,0.0964,0.0962,0.0961,0,0,0,0,0,0,0,0,0,0,0,0,0,0.1101,0.1099,0.0997,0.0997,0.0996,0.094,0.0939,0.0938,0.0961,0.0963,0.0964,0.0966,0.0964,0.0963,0.0961,0,0,0,0,0,0,0,0,0,0,0,0,0,0.1049,0.1099,0.0997,0.1002,0.1002,0.094,0.0939,0.0938,0.096,0.0963,0.0965,0.0967,0.0965,0.0963,0.0961,0.0901,0,0,0.0954,0.0953,0,0,0,0,0,0,0,0,0.1052,0.1045,0.1002,0.1002,0.1002,0.0962,0.0975,0.0929,0.096,0.0974,0.0965,0.0968,0.0968,0.0966,0.0946,0.0901,0.0901,0.0954,0.0952,0.0951,0.0951,0,0,0,0,0,0,0,0.1056,0.1048,0.0973,0.1001,0.1001,0.0999,0.0994,0.0966,0.0958,0.0973,0.0975,0.0971,0.0968,0.0948,0.0946,0.0901,0.0954,0.0952,0.095,0.095,0.0934,0.0935,0,0,0,0,0,0,0.1065,0.1051,0.0974,0.0971,0.1035,0.0995,0.099,0.0971,0.0957,0.0958,0.0969,0.0972,0.0951,0.0949,0.0947,0.0992,0.0951,0.0949,0.0948,0.0933,0.0934,0.0935,0,0,0,0,0,0,0.1067,0.1058,0.0977,0.1013,0.1002,0.0991,0.0969,0.0968,0.0988,0.0954,0.0956,0.0996,0.0952,0.095,0.0958,0.0988,0.0948,0.0946,0.0932,0.0933,0.0934,0.1009,0,0,0,0,0,0,0.107,0.1059,0.1059,0.1012,0.1001,0.0966,0.0967,0.0966,0.0981,0.0986,0.0977,0.0976,0.0954,0.0961,0.0956,0.0985,0.0945,0.0931,0.0932,0.0934,0.1005,0.1012,0.1019,0,0,0,0,0,0.1074,0.1055,0.1059,0.1051,0.0997,0.0966,0.096,0.0959,0.0981,0.0987,0.0989,0.0979,0.0969,0.096,0.0953,0.0982,0.093,0.0932,0.0934,0.1002,0.1011,0.1019,0,0,0,0,0,0,0.1096,0.1054,0.1058,0.1028,0.1016,0.0972,0.0972,0.0978,0.0981,0.0997,0.0979,0.0978,0.0998,0.0975,0.0966,0.0983,0.0951,0.0952,0.1005,0.1013,0.102,0.1003,0.0943,0,0,0,0,0,0.1102,0.1082,0.105,0.1033,0.1027,0.101,0.1004,0.1005,0.0994,0.0999,0.0995,0.0993,0.099,0.0994,0.0979,0.0979,0.0987,0.0996,0.1003,0.1009,0.0991,0.105,0.1061,0.0941,0.0941,0.0941,0,0,0.1106,0.1082,0.1072,0.1038,0.1026,0.101,0.1013,0.1009,0.1008,0.0996,0.1007,0.1014,0.0995,0.1003,0.1011,0.0995,0.1052,0.1012,0.1017,0.0995,0.1053,0.1065,0.1076,0.0943,0.0943,0.0942,0,0,0.1097,0.1086,0.107,0.1057,0.1046,0.103,0.1042,0.1023,0.1035,0.1037,0.1041,0.1063,0.105,0.1045,0.104,0.107,0.1086,0.1085,0.1105,0.1164,0.1175,0.1184,0.1231,0.1244,0.109,0.109,0.109,0,0.1114,0.1073,0.1064,0.1046,0.1034,0.1047,0.1031,0.1033,0.1027,0.1033,0.1056,0.1065,0.1062,0.107,0.1091,0.1085,0.1125,0.108,0.1175,0.1184,0.1193,0.1238,0.1251,0.1094,0.1093,0.1093,0.1093,0,0.1084,0.1063,0.1053,0.1032,0.1026,0.1012,0.1012,0.1025,0.1051,0.1055,0.1088,0.1096,0.1102,0.1122,0.1115,0.1171,0.1185,0.1181,0.1159,0.121,0.1254,0.1266,0.1099,0.1098,0.1097,0.1096,0,0,0.1084,0.104,0.1041,0.1023,0.1014,0.0999,0.1009,0.1006,0.1023,0.1055,0.1078,0.1101,0.1133,0.1129,0.1148,0.1202,0.131,0.1228,0.1229,0.128,0.1456,0.1278,0.1274,0.1349,0.1351,0.1353,0.1472,0,0.1066,0.102,0.1009,0.098,0.0952,0.0964,0.097,0.0983,0.1012,0.1044,0.1083,0.1116,0.113,0.1163,0.1219,0.1283,0.1343,0.1277,0.1391,0.1393,0.1235,0.1282,0.1133,0.121,0.1484,0.1486,0.1488,0,0.1038,0.1004,0.097,0.0935,0.093,0.0934,0.0945,0.0951,0.1,0.103,0.1079,0.1119,0.1189,0.1208,0.1343,0.1315,0.1386,0.1439,0.1445,0.1249,0.1236,0.1198,0.1222,0.1508,0.1506,0.1505,0.1504,0,0.1023,0.0976,0.0946,0.0934,0.091,0.0917,0.0923,0.0958,0.0975,0.1038,0.1072,0.1152,0.1209,0.1313,0.1402,0.1405,0.1553,0.1565,0.1467,0.1456,0.1326,0.1297,0.1662,0.1662,0.1662,0.1661,0.1661,0,0.0987,0.0964,0.0944,0.0925,0.092,0.091,0.0934,0.0951,0.0993,0.1026,0.1079,0.1122,0.1249,0.1334,0.1423,0.1462,0.1571,0.1461,0.1469,0.1345,0.1318,0.1561,0.1548,0.1666,0.1665,0.1664,0.1663,0,0.0976,0.0957,0.0926,0.0908,0.0914,0.0921,0.0947,0.0964,0.0997,0.1046,0.1071,0.1137,0.1233,0.1327,0.1485,0.1459,0.1532,0.1522,0.1347,0.1326,0.1402,0.1391,0.1433,0.1428,0.1423,0.1419,0.1416,0,0.0955,0.0939,0.0935,0.0945,0.0948,0.0958,0.0978,0.0988,0.1004,0.105,0.1073,0.1151,0.1185,0.1288,0.128,0.1347,0.1464,0.1214,0.1148,0.1372,0.1377,0.1373,0.1369,0.1048,0.1042,0.1038,0.1034,0,0.0922,0.0946,0.0933,0.0959,0.098,0.0985,0.1004,0.1005,0.102,0.1043,0.1054,0.1073,0.1094,0.103,0.1043,0.1077,0.1176,0.1107,0.1436,0.1079,0.1004,0.1009,0.102,0.099,0.0994,0.0998,0.1,0.1002,0.0919,0.0928,0.0939,0.0964,0.0991,0.1,0.0983,0.098,0.0978,0.0945,0.0989,0.0901,0.0876,0.0754,0.0776,0.0767,0.0876,0.0842,0.0861,0.0885,0.0767,0.0683,0.059,0.0592,0.0593,0.0595,0.0596,0,0.0886,0.0917,0.0939,0.0953,0.0964,0.1002,0.0987,0.0924,0.0881,0.0834,0.0796,0.0577,0.0503,0.0513,0.0398,0.0388,0.045,0.0397,0.0475,0.0516,0.0552,0.0423,0.0152,0.0152,0.0151,0.015,0,0,0.0866,0.0877,0.0891,0.0903,0.094,0.0923,0.0904,0.0797,0.0706,0.0565,0.0435,0.0408,0.0389,0.0207,0.0229,0.0171,0.0357,0.0163,0.0509,0.0638,0.0674,0.0785,0.0625,0,0,0,0,0]},{"header":{"parameterUnit":"m.s-1","parameterCategory":2,"la1":30.2991,"la2":30.254,"lo1":-89.0895,"lo2":-89.0444,"dy":0.0017,"dx":0.0017,"nx":28,"ny":28,"refTime":"2024-10-11T03:00:00:Z","depth":"2","parameterNumber":3,"parameterNumberName":"V-component_of_CURRENTS"},"data":[0,0,0,0,0,0,0,0,0,0,0,0,0,0,0,0,0,0,0,0,0,0,0,0,0,0,0,0,0,0,0,0,0,0,0,0,0,0,0,0,0,0,0,0,0,0,0,0,0,0,0,0,0,0,0,0,0,0,0.0042,0.0042,0,0.002,0.002,0.002,-0.0,-0.0001,-0.0001,-0.0002,-0.0073,-0.0074,-0.0076,0,0,0,0,0,0,0,0,0,0,0,0,0,0.0059,0.0059,0.0042,0.0042,0.0042,0.002,0.002,0.002,-0.0,-0.0001,-0.0001,-0.0002,-0.0072,-0.0074,-0.0076,0,0,0,0,0,0,0,0,0,0,0,0,0,0.0048,0.0059,0.0043,0.0028,0.0026,0.002,0.002,0.002,-0.0,-0.0001,-0.0001,-0.0002,-0.0072,-0.0074,-0.0076,-0.0079,0,0,-0.0083,-0.0084,0,0,0,0,0,0,0,0,0.0048,0.0047,0.003,0.0029,0.0027,0.0011,0.0,-0.0016,-0.0,0.0011,-0.0002,-0.0002,-0.005,-0.0054,-0.0054,-0.0083,-0.0086,-0.0084,-0.0085,-0.0086,-0.0087,0,0,0,0,0,0,0,0.0049,0.0048,0.0035,0.003,0.0028,0.002,0.0018,-0.0003,-0.0016,0.001,0.0008,0.0004,-0.0051,-0.0052,-0.0056,-0.0087,-0.0084,-0.0086,-0.0087,-0.0088,-0.0133,-0.0132,0,0,0,0,0,0,0.005,0.0049,0.0036,0.0034,0.0035,0.002,0.0018,0.0018,-0.0014,-0.002,0.0004,0.0003,-0.0048,-0.0054,-0.0059,-0.0075,-0.0086,-0.0088,-0.009,-0.0133,-0.0133,-0.0132,0,0,0,0,0,0,0.0051,0.0049,0.0037,0.004,0.0037,0.002,0.0021,0.0018,0.0001,-0.0019,-0.0025,-0.0011,-0.0048,-0.0056,-0.0088,-0.0077,-0.0089,-0.0091,-0.0133,-0.0133,-0.0132,-0.01,0,0,0,0,0,0,0.0051,0.005,0.0046,0.004,0.0037,0.0032,0.0021,0.0018,-0.0,-0.0003,-0.0034,-0.004,-0.0049,-0.0085,-0.009,-0.0081,-0.0093,-0.0133,-0.0133,-0.0133,-0.0101,-0.0098,-0.0096,0,0,0,0,0,0.0052,0.0056,0.0046,0.0044,0.0034,0.0032,0.003,0.0016,-0.0001,-0.0002,-0.003,-0.004,-0.0086,-0.0087,-0.0094,-0.0084,-0.0134,-0.0133,-0.0133,-0.0102,-0.0099,-0.0096,0,0,0,0,0,0,0.0067,0.0054,0.0043,0.0043,0.0035,0.0027,0.0021,0.0008,-0.0014,-0.0026,-0.0047,-0.0054,-0.0075,-0.0089,-0.0089,-0.0095,-0.0107,-0.0108,-0.0082,-0.0079,-0.0077,-0.005,-0.0095,0,0,0,0,0,0.0067,0.006,0.005,0.0048,0.0043,0.0027,0.002,0.0009,-0.0009,-0.002,-0.0042,-0.0063,-0.0074,-0.0086,-0.0101,-0.0113,-0.0092,-0.0109,-0.0106,-0.0104,-0.0086,-0.0043,-0.0035,-0.0131,-0.0131,-0.0131,0,0,0.0071,0.0062,0.0058,0.0049,0.0039,0.0039,0.0021,0.0008,0.0007,-0.0025,-0.0042,-0.0062,-0.0078,-0.0084,-0.0093,-0.0097,-0.0067,-0.0103,-0.0101,-0.0084,-0.0042,-0.0032,-0.0024,-0.0131,-0.0131,-0.0131,0,0,0.0081,0.0067,0.0066,0.0059,0.0041,0.0036,0.0028,0.0012,0.0002,-0.0018,-0.0034,-0.0042,-0.0078,-0.0066,-0.007,-0.0063,-0.0057,-0.008,-0.0043,-0.0002,0.0007,0.0015,0.0053,0.0064,-0.0075,-0.0075,-0.0075,0,0.0083,0.0083,0.0066,0.0065,0.0059,0.0034,0.0036,0.0029,0.0003,0.0005,-0.0023,-0.0034,-0.0057,-0.0032,-0.0033,-0.0053,-0.0037,-0.0054,0.0004,0.0012,0.002,0.0057,0.0069,-0.0074,-0.0074,-0.0074,-0.0074,0,0.0095,0.0091,0.0089,0.008,0.0076,0.0069,0.006,0.0052,0.0029,0.0028,0.0031,0.0012,0.0012,0.0004,-0.002,0.0026,0.0017,0.0001,0.0001,0.0032,0.0068,0.0081,-0.0071,-0.0072,-0.0072,-0.0073,0,0,0.0104,0.0098,0.0094,0.0093,0.0079,0.0078,0.0082,0.0089,0.01,0.0081,0.0109,0.0091,0.0082,0.008,0.0062,0.0095,0.0152,0.0066,0.0067,0.0113,0.0242,0.0217,0.0228,0.0141,0.0143,0.0145,0.0245,0,0.0112,0.0116,0.0112,0.0116,0.0117,0.0106,0.0118,0.0121,0.0118,0.0139,0.0144,0.0148,0.0112,0.0104,0.0137,0.0148,0.0185,0.0127,0.0197,0.0199,0.0182,0.0241,0.0216,0.0301,0.0256,0.0258,0.026,0,0.0119,0.0121,0.0125,0.0136,0.0136,0.0133,0.015,0.0157,0.0188,0.0188,0.021,0.0207,0.0249,0.0205,0.0277,0.0237,0.0242,0.0255,0.0259,0.0238,0.0198,0.0262,0.0325,0.028,0.0278,0.0277,0.0276,0,0.0124,0.0129,0.0132,0.013,0.014,0.014,0.0142,0.0165,0.0177,0.0214,0.023,0.0282,0.0296,0.0334,0.0341,0.0309,0.0428,0.0389,0.0384,0.0382,0.0378,0.0372,0.0452,0.0452,0.0452,0.0452,0.0451,0,0.0132,0.0132,0.0128,0.0127,0.0133,0.0137,0.0152,0.0164,0.0196,0.0226,0.0244,0.0292,0.0324,0.0381,0.039,0.0435,0.0469,0.0417,0.0417,0.0386,0.0379,0.0368,0.0356,0.0455,0.0455,0.0454,0.0453,0,0.0132,0.013,0.0131,0.0134,0.013,0.0128,0.0135,0.0159,0.0179,0.0222,0.023,0.0308,0.0389,0.0431,0.0507,0.0489,0.0538,0.0537,0.0496,0.0488,0.0454,0.0443,0.0561,0.0561,0.0562,0.0562,0.0562,0,0.0134,0.0133,0.0124,0.0122,0.0113,0.0111,0.0119,0.0137,0.0161,0.0238,0.0269,0.0357,0.0446,0.0562,0.0559,0.0604,0.0582,0.0567,0.0501,0.0483,0.0471,0.046,0.0449,0.0513,0.0512,0.0512,0.0512,0,0.0137,0.0123,0.0125,0.0117,0.0111,0.0122,0.0128,0.0149,0.0186,0.0232,0.0342,0.0429,0.0531,0.0591,0.0609,0.0615,0.0559,0.0561,0.0592,0.0471,0.0441,0.0427,0.0418,0.051,0.051,0.051,0.051,0.051,0.013,0.0128,0.0121,0.0118,0.0115,0.0133,0.0146,0.0187,0.0237,0.0314,0.0398,0.0507,0.0574,0.0615,0.0611,0.0553,0.0571,0.0527,0.0528,0.0528,0.0487,0.0457,0.0522,0.0522,0.0522,0.0522,0.0523,0,0.0137,0.0129,0.0128,0.0132,0.0144,0.0123,0.0156,0.0188,0.026,0.0338,0.044,0.0498,0.0573,0.0599,0.0511,0.0492,0.0475,0.0468,0.0449,0.0452,0.0455,0.0408,0.0423,0.0423,0.0422,0.0422,0,0,0.0141,0.0143,0.0148,0.0162,0.015,0.0155,0.0167,0.0219,0.0273,0.0359,0.0409,0.0556,0.0595,0.052,0.0508,0.0442,0.0436,0.0423,0.0508,0.049,0.0491,0.05,0.0433,0,0,0,0,0]}],[{"header":{"parameterUnit":"m.s-1","parameterCategory":2,"la1":30.2991,"la2":30.254,"lo1":-89.0895,"lo2":-89.0444,"dy":0.0017,"dx":0.0017,"nx":28,"ny":28,"refTime":"2024-10-11T03:00:00:Z","depth":"4","parameterNumber":2,"parameterNumberName":"U-component_of_CURRENTS"},"data":[0,0,0,0,0,0,0,0,0,0,0,0,0,0,0,0,0,0,0,0,0,0,0,0,0,0,0,0,0,0,0,0,0,0,0,0,0,0,0,0,0,0,0,0,0,0,0,0,0,0,0,0,0,0,0,0,0,0,-0.0389,-0.0389,0,-0.0392,-0.0392,-0.0392,-0.0392,-0.0392,-0.0392,-0.0392,-0.027,-0.0267,-0.0264,0,0,0,0,0,0,0,0,0,0,0,0,0,-0.0396,-0.0396,-0.0389,-0.0389,-0.0389,-0.0392,-0.0392,-0.0392,-0.0392,-0.0392,-0.0392,-0.0392,-0.0271,-0.0267,-0.0264,0,0,0,0,0,0,0,0,0,0,0,0,0,-0.0396,-0.0396,-0.0389,-0.0389,-0.0389,-0.0392,-0.0392,-0.0392,-0.0392,-0.0392,-0.0392,-0.0392,-0.0272,-0.0268,-0.0263,-0.0236,0,0,-0.0249,-0.0247,0,0,0,0,0,0,0,0,-0.0396,-0.0396,-0.0389,-0.0389,-0.0389,-0.0391,-0.035,-0.0333,-0.0393,-0.0392,-0.0392,-0.0392,-0.0299,-0.0292,-0.0295,-0.023,-0.0225,-0.0248,-0.0245,-0.0243,-0.0242,0,0,0,0,0,0,0,-0.0396,-0.0396,-0.0391,-0.0389,-0.0389,-0.0393,-0.0393,-0.0347,-0.0344,-0.0392,-0.0392,-0.0391,-0.0298,-0.03,-0.0292,-0.0223,-0.0248,-0.0244,-0.0241,-0.0239,-0.009,-0.0089,0,0,0,0,0,0,-0.0394,-0.0396,-0.039,-0.0391,-0.0392,-0.0393,-0.0393,-0.0391,-0.0347,-0.0341,-0.0391,-0.0391,-0.0308,-0.0298,-0.0287,-0.0224,-0.0243,-0.0239,-0.0236,-0.0091,-0.0089,-0.0088,0,0,0,0,0,0,-0.0394,-0.0393,-0.039,-0.0393,-0.0393,-0.0393,-0.0391,-0.0391,-0.0398,-0.0348,-0.034,-0.0399,-0.0308,-0.0294,-0.0243,-0.022,-0.0237,-0.0232,-0.0092,-0.009,-0.0089,-0.0114,0,0,0,0,0,0,-0.0394,-0.0394,-0.0399,-0.0393,-0.0392,-0.0397,-0.0391,-0.0391,-0.0398,-0.0398,-0.0351,-0.034,-0.0307,-0.025,-0.0238,-0.0214,-0.0229,-0.0093,-0.0091,-0.0089,-0.0114,-0.0113,-0.0112,0,0,0,0,0,-0.0395,-0.04,-0.0399,-0.0398,-0.0397,-0.0397,-0.0398,-0.0398,-0.0398,-0.0404,-0.0364,-0.0342,-0.0228,-0.0246,-0.0232,-0.0205,-0.0094,-0.0092,-0.0089,-0.0115,-0.0113,-0.0112,0,0,0,0,0,0,-0.0408,-0.04,-0.0399,-0.0402,-0.0402,-0.0397,-0.0406,-0.0403,-0.0381,-0.0377,-0.0331,-0.0317,-0.0262,-0.023,-0.0251,-0.0154,-0.0155,-0.015,-0.018,-0.0178,-0.0177,-0.0181,-0.0225,0,0,0,0,0,-0.0412,-0.0417,-0.0408,-0.0414,-0.0414,-0.0412,-0.0415,-0.0411,-0.039,-0.0383,-0.0345,-0.0295,-0.024,-0.0209,-0.0163,-0.0112,-0.0098,-0.0083,-0.0082,-0.0081,-0.0074,-0.0048,-0.0044,-0.008,-0.008,-0.008,0,0,-0.0421,-0.0418,-0.0421,-0.0418,-0.042,-0.0419,-0.0414,-0.0419,-0.0407,-0.0368,-0.0337,-0.0292,-0.0227,-0.0171,-0.0143,-0.0141,-0.0064,-0.0078,-0.0078,-0.0071,-0.0045,-0.0042,-0.0039,-0.0078,-0.0078,-0.0079,0,0,-0.0437,-0.0436,-0.0444,-0.0441,-0.044,-0.0435,-0.0437,-0.0426,-0.0412,-0.0372,-0.0337,-0.0285,-0.0206,-0.0159,-0.0122,-0.0085,-0.0064,-0.0063,-0.0055,-0.0029,-0.0027,-0.0024,-0.0013,-0.001,-0.0058,-0.0058,-0.0058,0,-0.0447,-0.0451,-0.0447,-0.0449,-0.0449,-0.0441,-0.0444,-0.0427,-0.0397,-0.0372,-0.0361,-0.0245,-0.0198,-0.0122,-0.0103,-0.0083,-0.007,-0.0069,-0.0031,-0.0028,-0.0025,-0.0014,-0.0009,-0.0059,-0.0059,-0.0059,-0.0058,0,-0.046,-0.0466,-0.0471,-0.0468,-0.0468,-0.047,-0.0446,-0.0429,-0.0404,-0.0375,-0.0301,-0.0238,-0.0162,-0.0139,-0.0102,-0.0047,-0.0046,-0.0041,-0.0042,-0.0023,-0.0012,-0.0007,-0.006,-0.006,-0.0059,-0.0059,0,0,-0.0466,-0.0478,-0.0479,-0.0481,-0.0476,-0.0473,-0.0451,-0.0419,-0.0386,-0.0342,-0.029,-0.0199,-0.0161,-0.0115,-0.0068,-0.0042,-0.0011,-0.0027,-0.0025,-0.003,0.0037,0.0001,0.0003,-0.0002,-0.0,0.0,0.0031,0,-0.0475,-0.0489,-0.0489,-0.0494,-0.0496,-0.0478,-0.0452,-0.0419,-0.0372,-0.0316,-0.0249,-0.0173,-0.0151,-0.0097,-0.0071,-0.0018,0.0003,-0.002,0.0033,0.0034,-0.0012,0.0008,0.0004,0.0035,0.0036,0.0037,0.0037,0,-0.0476,-0.0486,-0.0498,-0.0494,-0.0491,-0.0487,-0.044,-0.0407,-0.0331,-0.0285,-0.0214,-0.0158,-0.0084,-0.0074,0.0001,-0.0014,0.0015,0.0037,0.0039,0.002,0.0008,0.0018,0.0046,0.0046,0.0045,0.0044,0.0044,0,-0.047,-0.0485,-0.0498,-0.0498,-0.049,-0.0478,-0.0457,-0.0394,-0.035,-0.0251,-0.0209,-0.0127,-0.0067,-0.0026,0.002,0.0025,0.0074,0.0085,0.0073,0.007,0.0102,0.0099,0.0127,0.0127,0.0127,0.0127,0.0127,0,-0.0466,-0.0475,-0.0495,-0.0496,-0.0486,-0.0471,-0.0427,-0.0385,-0.0312,-0.0259,-0.0183,-0.014,-0.005,-0.0014,0.002,0.0052,0.0075,0.0079,0.008,0.009,0.0086,0.0104,0.0101,0.0128,0.0128,0.0128,0.0128,0,-0.0454,-0.0472,-0.0481,-0.0484,-0.0483,-0.0463,-0.0423,-0.0382,-0.0313,-0.0242,-0.0207,-0.0133,-0.008,-0.0026,0.0042,0.0054,0.0086,0.0086,0.0079,0.0078,0.0068,0.0064,0.0099,0.0098,0.0097,0.0096,0.0096,0,-0.0451,-0.0458,-0.0474,-0.0474,-0.0478,-0.0452,-0.0431,-0.0375,-0.034,-0.0254,-0.0234,-0.0158,-0.011,-0.005,-0.0003,0.0055,0.0058,0.0076,0.0094,0.007,0.0068,0.0064,0.0061,0.0095,0.0095,0.0094,0.0094,0,-0.044,-0.0451,-0.0458,-0.0462,-0.0457,-0.0444,-0.0419,-0.0396,-0.0326,-0.0282,-0.0227,-0.0168,-0.012,-0.0063,-0.0019,0.0014,0.007,0.0068,0.0071,0.0088,0.0065,0.0063,0.0061,0.0091,0.0092,0.0092,0.0092,0,-0.043,-0.0431,-0.0445,-0.044,-0.0441,-0.0433,-0.042,-0.0389,-0.0347,-0.0263,-0.0264,-0.0189,-0.0141,-0.0089,-0.0066,-0.0018,0.0006,0.0026,0.0032,0.0035,0.0003,-0.0037,-0.0035,0,0,0,0,0,-0.0413,-0.0414,-0.0421,-0.0414,-0.0416,-0.042,-0.0413,-0.0399,-0.0356,-0.0312,-0.0274,-0.0227,-0.0148,-0.0134,-0.0087,-0.0089,-0.0001,-0.0036,0.0022,0.0077,0.008,0.0049,0,0,0,0,0,0,-0.0401,-0.041,-0.0415,-0.0397,-0.0391,-0.039,-0.0391,-0.0369,-0.0349,-0.0303,-0.027,-0.0221,-0.0161,-0.0161,-0.0084,-0.0072,-0.0033,0.0004,0.0004,0.0075,0.0078,0.008,0.0049,0,0,0,0,0]},{"header":{"parameterUnit":"m.s-1","parameterCategory":2,"la1":30.2991,"la2":30.254,"lo1":-89.0895,"lo2":-89.0444,"dy":0.0017,"dx":0.0017,"nx":28,"ny":28,"refTime":"2024-10-11T03:00:00:Z","depth":"4","parameterNumber":3,"parameterNumberName":"V-component_of_CURRENTS"},"data":[0,0,0,0,0,0,0,0,0,0,0,0,0,0,0,0,0,0,0,0,0,0,0,0,0,0,0,0,0,0,0,0,0,0,0,0,0,0,0,0,0,0,0,0,0,0,0,0,0,0,0,0,0,0,0,0,0,0,0.0384,0.0384,0,0.0398,0.0398,0.0399,0.0422,0.0422,0.0423,0.0423,0.0381,0.038,0.0378,0,0,0,0,0,0,0,0,0,0,0,0,0,0.0366,0.0366,0.0384,0.0384,0.0384,0.0398,0.0398,0.0399,0.0422,0.0422,0.0423,0.0423,0.0382,0.038,0.0378,0,0,0,0,0,0,0,0,0,0,0,0,0,0.0377,0.0366,0.0384,0.0397,0.0398,0.0398,0.0398,0.0399,0.0422,0.0422,0.0423,0.0424,0.0382,0.038,0.0378,0.0353,0,0,0.0371,0.037,0,0,0,0,0,0,0,0,0.0376,0.0377,0.0395,0.0396,0.0398,0.0409,0.0377,0.038,0.0422,0.0413,0.0423,0.0424,0.0384,0.0382,0.0385,0.0351,0.0349,0.0371,0.037,0.0369,0.0368,0,0,0,0,0,0,0,0.0375,0.0377,0.039,0.0395,0.0397,0.0399,0.0401,0.0378,0.0395,0.0414,0.0416,0.0416,0.0385,0.0387,0.0384,0.0348,0.0371,0.0369,0.0368,0.0367,0.0284,0.0283,0,0,0,0,0,0,0.0373,0.0376,0.039,0.039,0.0388,0.0399,0.0401,0.0405,0.0396,0.0396,0.0416,0.0418,0.039,0.0386,0.0382,0.0373,0.0369,0.0367,0.0365,0.0285,0.0283,0.0283,0,0,0,0,0,0,0.0372,0.0374,0.0389,0.0383,0.0385,0.0398,0.0402,0.0405,0.0421,0.0398,0.0397,0.0432,0.0391,0.0385,0.0373,0.0371,0.0366,0.0363,0.0286,0.0284,0.0283,0.034,0,0,0,0,0,0,0.0372,0.0374,0.0381,0.0383,0.0385,0.0391,0.0402,0.0405,0.042,0.0422,0.041,0.0407,0.0391,0.0376,0.0371,0.0367,0.0362,0.0287,0.0285,0.0283,0.0339,0.0341,0.0342,0,0,0,0,0,0.0371,0.0373,0.0382,0.0383,0.0394,0.039,0.0392,0.0403,0.042,0.0422,0.042,0.0408,0.0361,0.0375,0.0368,0.0364,0.0287,0.0285,0.0284,0.0338,0.034,0.0342,0,0,0,0,0,0,0.0368,0.0375,0.0385,0.039,0.0393,0.0394,0.0401,0.0411,0.0413,0.0421,0.0406,0.0401,0.0384,0.0361,0.0377,0.033,0.0318,0.0314,0.0361,0.0363,0.0364,0.0369,0.036,0,0,0,0,0,0.0371,0.0374,0.0381,0.0384,0.039,0.04,0.0405,0.0412,0.0412,0.0416,0.0417,0.0398,0.0367,0.0359,0.0332,0.0315,0.0292,0.0301,0.0303,0.0304,0.0301,0.0262,0.026,0.0276,0.0276,0.0276,0,0,0.037,0.0374,0.0377,0.0384,0.0392,0.0397,0.0405,0.0413,0.0425,0.0407,0.0431,0.0406,0.0362,0.0343,0.0332,0.0329,0.0291,0.0302,0.0304,0.0299,0.026,0.0259,0.0257,0.0275,0.0275,0.0275,0,0,0.0364,0.0377,0.038,0.0384,0.0394,0.04,0.0406,0.0423,0.044,0.0446,0.0432,0.0413,0.0385,0.0357,0.0333,0.0322,0.0298,0.0307,0.0325,0.0288,0.0287,0.0286,0.0276,0.0274,0.0311,0.0311,0.0311,0,0.0365,0.037,0.0378,0.0382,0.0389,0.0404,0.0411,0.0425,0.0439,0.0447,0.0457,0.0411,0.0387,0.0344,0.0344,0.0327,0.031,0.033,0.0293,0.0291,0.0288,0.0279,0.0275,0.0313,0.0313,0.0313,0.0312,0,0.0357,0.0369,0.0371,0.0384,0.0391,0.0397,0.0416,0.0439,0.0463,0.0467,0.0454,0.0428,0.0397,0.0382,0.0363,0.0327,0.0323,0.0302,0.0297,0.0291,0.0281,0.0276,0.0317,0.0316,0.0315,0.0315,0,0,0.0345,0.0363,0.0368,0.0376,0.0395,0.0397,0.0425,0.0439,0.0454,0.0466,0.0468,0.0428,0.0421,0.0392,0.0366,0.0338,0.0323,0.0321,0.0318,0.0328,0.0261,0.0276,0.0273,0.0297,0.0296,0.0295,0.0269,0,0.0342,0.0351,0.0362,0.0375,0.0384,0.0407,0.0432,0.0448,0.046,0.0468,0.0444,0.043,0.0422,0.041,0.0381,0.0328,0.0309,0.0333,0.025,0.0248,0.0275,0.0266,0.0292,0.0266,0.0264,0.0264,0.0263,0,0.0336,0.0344,0.036,0.0383,0.0391,0.0407,0.044,0.0465,0.0474,0.0478,0.046,0.044,0.0408,0.0399,0.0328,0.0345,0.031,0.0275,0.0273,0.0261,0.0253,0.0264,0.0254,0.0255,0.0256,0.0256,0.0257,0,0.0327,0.0343,0.0358,0.0364,0.0394,0.0419,0.0451,0.0475,0.0499,0.0493,0.0491,0.0442,0.0432,0.037,0.0322,0.032,0.0241,0.0226,0.0209,0.0211,0.0182,0.0183,0.0171,0.0171,0.0171,0.0172,0.0172,0,0.032,0.033,0.0361,0.0372,0.04,0.0431,0.0474,0.0489,0.0514,0.0525,0.0507,0.0481,0.0423,0.0377,0.032,0.026,0.0243,0.0211,0.0198,0.0209,0.0213,0.0181,0.0182,0.0171,0.0171,0.0171,0.0171,0,0.0309,0.0329,0.0344,0.0383,0.04,0.0432,0.0504,0.0524,0.0557,0.0568,0.057,0.0517,0.0458,0.0405,0.0306,0.0272,0.02,0.0184,0.0223,0.0213,0.0197,0.0202,0.0157,0.0158,0.0158,0.0158,0.0158,0,0.0302,0.0313,0.0351,0.0371,0.0395,0.0455,0.0495,0.0543,0.0559,0.0577,0.0559,0.0525,0.0486,0.0359,0.0298,0.0214,0.0199,0.0181,0.0168,0.0201,0.0192,0.0196,0.0201,0.0158,0.0158,0.0158,0.0158,0,0.0287,0.0307,0.032,0.0364,0.0403,0.0448,0.0507,0.0506,0.056,0.0591,0.054,0.0495,0.0433,0.0339,0.0299,0.0225,0.0198,0.0182,0.0181,0.0169,0.0201,0.0194,0.0197,0.0159,0.0159,0.0159,0.0159,0,0.0274,0.028,0.0308,0.0343,0.0393,0.0423,0.0454,0.0475,0.0499,0.0521,0.0495,0.0447,0.0431,0.0343,0.0282,0.0242,0.0221,0.0201,0.0198,0.0197,0.0219,0.0266,0.0231,0,0,0,0,0,0.026,0.0267,0.029,0.0328,0.038,0.0418,0.0449,0.0475,0.0514,0.0477,0.0497,0.0438,0.0367,0.0312,0.027,0.0272,0.021,0.0222,0.0183,0.0162,0.0161,0.0181,0,0,0,0,0,0,0.0245,0.0264,0.0274,0.0317,0.0353,0.0407,0.0424,0.0443,0.0419,0.0451,0.0391,0.0443,0.0346,0.0402,0.0277,0.0267,0.0237,0.0209,0.0208,0.0162,0.0161,0.0161,0.0181,0,0,0,0,0]}]]